Погода в Богдановском

Россия / Архангельская область     61°19′16″N   43°42′28″E
темп.,
°C
ветер,
м/с
пор.,
м/с
влажн.,
%
обл.,
%
осадки,
мм/ч
давл.,
гПа
погр.,
м
14 апреля, ср
ср1400:00+9ююз31295100 0.0 1021364
03:00+8ю3109595 0.0 1021245
06:00+8ююз399598 0.3 1019246
09:00+13ююз4107053 0.5 1018391
12:00+17ююз5136072 0.0 10161058
15:00+18ююз6155895 0.0 10151888
18:00+15юз6137099 0.8 10141212
21:00+9ссз4793100 1.8 1017463
15 апреля, чт
чт1500:00+5ссз3790100 3.4 1020663
03:00+4ссз268793 4.3 1021691
06:00+4с378595 0.1 1023682
09:00+4с4665100 0.1 1026821
12:00+6с464895 0.0 10271231
15:00+7с46427 0.0 10281527
18:00+5с36563 0.0 10291025
21:00+1с28740 0.0 1031225
16 апреля, пт
пт1600:00−1ссв25770 0.0 1032122
03:00−1ссв22783 0.0 103351
06:000ссв11735 0.0 103455
09:00+4зсз12475 0.0 1034601
12:00+7сз23365 0.0 10331031
15:00+9сз34374 0.0 10321212
18:00+7ссз24530 0.0 1032139
21:00+3ссз22740 0.0 103312
17 апреля, сб
сб1700:00+2ссз22841 0.0 103314
03:00+1сз229129 0.0 103437
06:00+1сз28875 0.0 1034227
09:00+6ссз37645 0.0 1034893
12:00+8ссз464678 0.0 10341137
15:00+9ссз464596 0.0 10331174
18:00+8ссз37575 0.0 1033786
21:00+4сз22755 0.0 103317
18 апреля, вс
вс1800:00+3сз28855 0.0 1033180
03:00+1ссз26935 0.0 1034129
06:00+1с15915 0.0 1035170
09:00+6с246964 0.0 1035927
12:00+8ссв345676 0.0 10351407
15:00+9св345283 0.0 10351226
18:00+8всв245939 0.0 1035344
21:00+3вюв23805 0.0 103654